Location: Gorze? G�rny
(49.8500°N, 19.5000°E)
Time: 11:24:44
(UTC+00:00)

Cosmos 2369 Rocket - Pass Details

Date: 13 May 2021
Orbit: 827 x 854 km, 71.0° (Epoch: 22 June)

Event Time Altitude Azimuth Distance (km) Brightness Sun altitude
Exits shadow 20:04:26 11° 104° (ESE) 2,351 4.1 -13.6°
Maximum altitude 20:05:15 12° 95° (E) 2,330 4.1 -13.6°
Drops below altitude 10° 20:07:07 10° 75° (ENE) 2,456 4.4 -13.8°
Sets 20:11:21 0° 45° (NE) 3,405 5.5 -14.2°
